Waarnemingen

Advertentie
Mijn weer
Nancy/Ochey, Frankrijk (7181): temperatuur & dauwpunt: 15.01.2017 01:00:00 - 21.01.2017 01:00:00 (CET)Nancy/Ochey, Frankrijk (7181): temperatuur 5cm: 15.01.2017 01:00:00 - 21.01.2017 01:00:00 (CET)Nancy/Ochey, Frankrijk (7181): temperatuur -20cm & temperatuur -100cm: 15.01.2017 01:00:00 - 21.01.2017 01:00:00 (CET)Nancy/Ochey, Frankrijk (7181): windsnelheid & windstoten: 15.01.2017 01:00:00 - 21.01.2017 01:00:00 (CET)Nancy/Ochey, Frankrijk (7181): windrichting: 15.01.2017 01:00:00 - 21.01.2017 01:00:00 (CET)Nancy/Ochey, Frankrijk (7181): luchtdruk: 15.01.2017 01:00:00 - 21.01.2017 01:00:00 (CET)Nancy/Ochey, Frankrijk (7181): zicht: 15.01.2017 01:00:00 - 21.01.2017 01:00:00 (CET)Nancy/Ochey, Frankrijk (7181): neerslag: 15.01.2017 01:00:00 - 21.01.2017 01:00:00 (CET)
Datum & Tijd tt [°C] td [°C] tt 5cm [°C] tt -20cm [°C] tt -100cm [°C] ff [km/u] ff [kn] fx [km/u] fx [kn] dd ppp [hPa] vv [km] rr [mm]
21.01.2017 01:00:00 - - - - - - - - - - - - -
21.01.2017 00:00:00 -5,3 -9,2 -7,2 1,9 5,6 11 6 16 9 OZO 1031,1 12 0,0
20.01.2017 23:00:00 -4,5 -8,4 -6,1 1,9 5,6 8 4 17 9 ZO 1031,3 10 0,0
20.01.2017 22:00:00 -4,5 -8,3 -5,9 1,9 5,6 11 6 16 9 OZO 1031,4 11 0,0
20.01.2017 21:00:00 -4,3 -8,1 -9,6 1,9 5,6 10 6 16 9 O 1031,3 12 0,0
20.01.2017 20:00:00 -4,5 -8,3 -7,5 1,9 5,7 10 6 19 10 O 1031,5 13 0,0
20.01.2017 19:00:00 -3,0 -7,5 -4,1 1,9 5,6 13 7 17 9 OZO 1031,0 14 0,0
20.01.2017 18:00:00 -1,8 -7,5 -3,5 1,9 5,6 10 5 19 11 O 1031,0 17 0,0
20.01.2017 17:00:00 -1,0 -7,2 -2,4 1,9 5,6 7 4 17 9 OZO 1030,8 18 0,0
20.01.2017 16:00:00 -0,2 -6,8 -0,1 1,9 5,6 10 6 22 12 O 1030,9 15 0,0
20.01.2017 15:00:00 -0,3 -6,9 0,9 1,9 5,6 12 7 19 10 OZO 1030,9 10 0,0
20.01.2017 14:00:00 -0,8 -7,4 0,4 1,9 5,6 9 5 18 10 O 1031,1 17 0,0
20.01.2017 13:00:00 -1,4 -8,0 -0,8 1,9 5,6 14 8 22 12 O 1031,8 17 0,0
20.01.2017 12:00:00 -2,3 -8,2 -2,1 2,0 5,7 11 6 19 11 OZO 1032,5 15 0,0
20.01.2017 11:00:00 -3,7 -9,1 -5,7 2,0 5,7 14 8 21 12 O 1033,0 15 0,0
20.01.2017 10:00:00 -5,4 -9,5 -6,5 2,0 5,7 13 7 17 9 O 1033,1 15 0,0
20.01.2017 09:00:00 -6,0 -9,7 -7,1 2,0 5,7 10 6 19 11 O 1032,9 16 0,0
20.01.2017 08:00:00 -6,0 -9,7 -7,2 2,0 5,7 10 6 26 14 O 1032,7 18 0,0
20.01.2017 07:00:00 -6,1 -9,6 -7,0 2,0 5,7 14 8 22 12 O 1032,5 18 0,0
20.01.2017 06:00:00 -5,5 -9,4 -6,5 2,0 5,7 13 7 23 13 OZO 1032,3 18 0,0
20.01.2017 05:00:00 -5,4 -9,3 -6,3 2,0 5,7 12 6 27 15 OZO 1032,2 18 0,0
20.01.2017 04:00:00 -5,1 -9,2 -6,7 2,0 5,7 11 6 22 12 OZO 1032,4 17 0,0
20.01.2017 03:00:00 -5,3 -9,2 -9,3 2,1 5,7 9 5 25 13 O 1032,6 16 0,0
20.01.2017 02:00:00 -5,4 -9,3 -9,0 2,1 5,7 11 6 25 13 ONO 1032,7 17 0,0
20.01.2017 01:00:00 -5,1 -9,2 -6,5 2,1 5,7 16 9 34 18 ONO 1032,7 16 0,0
20.01.2017 00:00:00 -4,2 -8,9 -5,1 2,1 5,7 23 12 39 21 O 1033,0 17 0,0
19.01.2017 23:00:00 -3,7 -8,8 -4,9 2,1 5,7 17 9 32 17 O 1033,0 18 0,0
19.01.2017 22:00:00 -3,6 -8,8 -4,5 2,1 5,7 20 11 33 18 O 1033,2 19 0,0
19.01.2017 21:00:00 -3,2 -8,9 -4,1 2,1 5,7 16 9 34 18 O 1033,3 17 0,0
19.01.2017 20:00:00 -3,1 -8,6 -4,4 2,1 5,7 19 10 35 19 O 1033,2 15 0,0
19.01.2017 19:00:00 -3,2 -7,9 -5,6 2,1 5,7 16 8 29 16 O 1033,2 12 0,0
19.01.2017 18:00:00 -2,4 -7,3 -4,0 2,1 5,8 7 4 23 12 O 1032,9 14 0,0
19.01.2017 17:00:00 -1,5 -7,4 -2,6 2,1 5,7 13 7 27 14 ONO 1032,8 16 0,0
19.01.2017 16:00:00 -0,7 -6,9 -0,8 2,1 5,8 16 8 26 14 ONO 1032,5 15 0,0
19.01.2017 15:00:00 -0,8 -7,0 0,1 2,1 5,7 15 8 21 11 ONO 1032,9 14 0,0
19.01.2017 14:00:00 -1,1 -6,9 -0,7 2,2 5,7 13 7 21 12 ONO 1033,1 13 0,0
19.01.2017 13:00:00 -2,1 -7,4 -1,6 2,2 5,7 13 7 34 18 ONO 1033,5 10 0,0
19.01.2017 12:00:00 -3,1 -7,8 -3,1 2,2 5,8 20 11 35 19 O 1033,7 10 0,0
19.01.2017 11:00:00 -4,5 -8,4 -5,4 2,2 5,8 20 11 30 16 O 1034,3 11 0,0
19.01.2017 10:00:00 -5,4 -8,6 -7,2 2,2 5,8 10 5 20 11 ONO 1034,5 10 0,0
19.01.2017 09:00:00 -6,7 -9,1 -8,2 2,3 5,8 9 5 27 14 O 1034,3 10 0,0
19.01.2017 08:00:00 -6,9 -9,1 -8,3 2,3 5,8 14 7 26 14 ONO 1034,0 10 0,0
19.01.2017 07:00:00 -7,0 -9,2 -8,6 2,3 5,8 10 5 35 19 NO 1033,8 11 0,0
19.01.2017 06:00:00 -7,0 -9,2 -8,5 2,3 5,8 12 7 32 17 NO 1033,7 11 0,0
19.01.2017 05:00:00 -6,4 -9,1 -7,2 2,3 5,8 18 10 35 19 ONO 1033,5 12 0,0
19.01.2017 04:00:00 -6,3 -9,2 -7,0 2,3 5,8 16 9 36 19 O 1033,2 12 0,0
19.01.2017 03:00:00 -6,2 -9,1 -6,8 2,3 5,8 21 11 35 19 O 1033,4 12 0,0
19.01.2017 02:00:00 -6,0 -8,9 -6,6 2,4 5,8 21 11 36 20 O 1033,5 12 0,0
19.01.2017 01:00:00 -5,5 -8,9 -6,3 2,4 5,8 24 13 40 22 ONO 1033,4 13 0,0
19.01.2017 00:00:00 -5,3 -8,9 -6,1 2,4 5,8 22 12 41 22 ONO 1033,8 13 0,0
18.01.2017 23:00:00 -5,1 -8,8 -5,7 2,4 5,8 24 13 42 23 ONO 1033,8 15 0,0
18.01.2017 22:00:00 -4,6 -8,9 -5,2 2,4 5,8 19 11 41 22 O 1033,8 17 0,0
18.01.2017 21:00:00 -4,2 -8,9 -5,0 2,4 5,8 24 13 41 22 O 1034,0 18 0,0
18.01.2017 20:00:00 -4,0 -8,9 -4,7 2,4 5,8 21 11 45 25 O 1034,2 20 0,0
18.01.2017 19:00:00 -3,4 -8,8 -4,2 2,4 5,8 20 11 40 21 O 1034,2 28 0,0
18.01.2017 18:00:00 -2,9 -8,6 -3,6 2,5 5,8 22 12 43 23 O 1034,0 30 0,0
18.01.2017 17:00:00 -2,5 -8,2 -3,1 2,5 5,8 23 13 48 26 O 1033,6 29 0,0
18.01.2017 16:00:00 -1,8 -7,7 -1,4 2,5 5,8 29 16 49 26 O 1033,5 34 0,0
18.01.2017 15:00:00 -1,5 -7,6 -1,1 2,5 5,8 28 15 48 26 O 1033,3 34 0,0
18.01.2017 14:00:00 -2,0 -7,9 -1,9 2,5 5,8 32 17 55 30 ONO 1033,5 37 0,0
18.01.2017 13:00:00 -1,5 -7,6 -1,4 2,5 5,8 26 14 46 25 O 1033,3 20 0,0
18.01.2017 12:00:00 -2,4 -7,3 -2,2 2,6 5,8 29 16 56 30 ONO 1033,7 40 0,0
18.01.2017 11:00:00 -3,4 -7,7 -4,1 2,6 5,8 30 16 61 33 O 1034,0 15 0,0
18.01.2017 10:00:00 -4,1 -8,2 -5,3 2,6 5,8 31 17 53 28 ONO 1034,0 18 0,0
18.01.2017 09:00:00 -5,0 -8,2 -6,1 2,7 5,8 27 14 44 24 ONO 1033,9 30 0,0
18.01.2017 08:00:00 -5,4 -8,3 -6,1 2,7 5,8 23 12 40 22 ONO 1033,8 34 0,0
18.01.2017 07:00:00 -5,3 -8,2 -6,0 2,7 5,9 22 12 40 22 ONO 1033,7 34 0,0
18.01.2017 06:00:00 -4,9 -8,1 -5,8 2,7 5,9 26 14 39 21 ONO 1033,4 38 0,0
18.01.2017 05:00:00 -5,1 -8,3 -6,1 2,7 5,9 23 12 40 22 O 1033,3 39 0,0
18.01.2017 04:00:00 -5,1 -8,3 -5,7 2,8 5,8 21 11 38 20 ONO 1033,5 42 0,0
18.01.2017 03:00:00 -4,8 -8,0 -5,9 2,8 5,9 22 12 41 22 O 1033,8 47 0,0
18.01.2017 02:00:00 -5,0 -8,2 -5,8 2,8 5,8 18 10 36 20 ONO 1034,1 46 0,0
18.01.2017 01:00:00 -4,4 -8,0 -5,1 2,8 5,9 24 13 43 23 ONO 1033,8 53 0,0
18.01.2017 00:00:00 -4,2 -8,1 -5,1 2,8 5,9 23 13 52 28 ONO 1033,8 59 0,0
17.01.2017 23:00:00 -3,8 -8,1 -4,7 2,8 5,8 26 14 49 27 O 1033,9 59 0,0
17.01.2017 22:00:00 -3,8 -8,7 -4,8 2,8 5,9 22 12 39 21 O 1034,2 60 0,0
17.01.2017 21:00:00 -4,1 -8,4 -4,9 2,9 5,8 16 9 32 18 ONO 1034,1 60 0,0
17.01.2017 20:00:00 -3,6 -7,6 -4,9 2,9 5,9 18 10 31 17 O 1034,1 56 0,0
17.01.2017 19:00:00 -3,7 -8,0 -4,7 2,9 5,8 19 11 33 18 ONO 1033,7 59 0,0
17.01.2017 18:00:00 -3,4 -8,5 -4,3 2,9 5,9 16 8 27 15 ONO 1033,6 59 0,0
17.01.2017 17:00:00 -2,6 -8,3 -3,2 3,0 5,9 14 8 32 17 ONO 1033,3 60 0,0
17.01.2017 16:00:00 -1,9 -7,6 -1,8 3,0 5,9 24 13 40 22 NO 1033,2 60 0,0
17.01.2017 15:00:00 -1,9 -7,4 -1,7 3,0 5,9 23 13 39 21 NO 1033,0 58 0,0
17.01.2017 14:00:00 -2,1 -7,4 -1,7 3,0 5,9 21 12 40 22 ONO 1032,9 60 0,0
17.01.2017 13:00:00 -2,3 -7,6 -2,2 3,0 5,9 29 16 46 25 O 1033,5 42 0,0
17.01.2017 12:00:00 -3,1 -7,6 -2,6 3,0 5,9 28 15 51 27 O 1033,7 20 0,0
17.01.2017 11:00:00 -3,2 -7,2 -4,5 3,1 5,9 22 12 39 21 ONO 1034,0 46 0,0
17.01.2017 10:00:00 -4,6 -7,5 -5,2 3,1 5,9 23 12 42 23 ONO 1034,0 46 0,0
17.01.2017 09:00:00 -5,1 -7,1 -5,4 3,1 5,9 26 14 48 26 ONO 1034,0 17 0,0
17.01.2017 08:00:00 -5,3 -7,3 -5,7 3,1 5,9 21 11 37 20 ONO 1033,4 25 0,0
17.01.2017 07:00:00 -5,6 -7,3 -6,4 3,2 5,9 25 14 41 22 O 1032,9 17 0,0
17.01.2017 06:00:00 -6,0 -7,4 -7,2 3,2 5,9 16 9 32 17 O 1032,5 10 0,0
17.01.2017 05:00:00 -5,9 -7,1 -7,7 3,2 5,9 13 7 23 12 ONO 1032,1 18 0,0
17.01.2017 04:00:00 -6,0 -7,5 -8,5 3,2 5,9 11 6 19 10 ONO 1031,8 10 0,0
17.01.2017 03:00:00 -6,0 -7,7 -8,1 3,2 5,9 9 5 16 9 NO 1031,8 23 0,0
17.01.2017 02:00:00 -5,8 -7,3 -7,3 3,2 5,9 12 6 19 10 ONO 1031,3 20 0,0
17.01.2017 01:00:00 -5,3 -7,1 -6,3 3,2 5,9 14 7 27 15 ONO 1030,9 20 0,0
17.01.2017 00:00:00 -5,2 -6,9 -6,2 3,3 5,9 14 7 23 12 ONO 1030,7 19 0,0
16.01.2017 23:00:00 -4,1 -6,1 -5,4 3,2 5,9 13 7 23 13 ONO 1030,2 20 0,0
16.01.2017 22:00:00 -3,7 -5,7 -5,4 3,2 5,9 11 6 24 13 ONO 1029,8 20 0,0
16.01.2017 21:00:00 -3,8 -4,6 -5,3 3,3 5,9 14 8 21 12 O 1029,2 14 0,0
16.01.2017 20:00:00 -3,6 -4,1 -6,2 3,2 5,9 9 5 13 7 ONO 1028,7 10 0,0
16.01.2017 19:00:00 -4,7 -5,0 -10,7 3,2 5,9 9 5 11 6 NNO 1028,2 7 0,0
16.01.2017 18:00:00 -4,6 -5,7 -10,0 3,2 5,9 7 4 10 5 NNO 1027,9 8 0,0
16.01.2017 17:00:00 -3,6 -5,0 -8,7 3,2 5,9 4 2 19 10 NNO 1027,4 18 0,0
16.01.2017 16:00:00 -1,6 -3,0 -1,7 3,2 5,9 13 7 20 11 ONO 1026,8 9 0,0
16.01.2017 15:00:00 -1,1 -2,8 -0,6 3,2 5,9 13 7 19 10 NNO 1026,4 15 0,0
16.01.2017 14:00:00 -1,4 -2,7 0,5 3,2 5,9 10 5 16 9 NNO 1026,0 12 0,0
16.01.2017 13:00:00 -1,2 -2,3 0,2 3,2 5,9 10 5 13 7 NNO 1026,1 9 0,0
16.01.2017 12:00:00 -1,0 -2,9 -0,2 3,2 5,9 8 4 12 7 ONO 1026,3 15 0,0
16.01.2017 11:00:00 -1,3 -2,4 -1,4 3,2 5,9 11 6 16 9 NO 1026,3 10 0,0
16.01.2017 10:00:00 -1,9 -2,5 -3,2 3,2 5,9 6 4 13 7 NO 1026,0 9 0,0
16.01.2017 09:00:00 -2,2 -2,5 -2,8 3,2 5,9 5 3 10 5 O 1025,7 7 0,0
16.01.2017 08:00:00 -2,4 -2,5 -8,6 3,2 5,9 3 2 9 5 OZO 1025,2 8 0,0
16.01.2017 07:00:00 -2,8 -3,3 -5,2 3,2 5,9 6 3 17 9 ONO 1024,6 2,1 0,0
16.01.2017 06:00:00 -1,5 -1,8 -3,4 3,2 5,9 10 5 17 9 O 1024,0 9 0,0
16.01.2017 05:00:00 -2,0 -2,1 -5,0 3,2 5,9 6 3 9 5 ONO 1023,9 1,7 0,0
16.01.2017 04:00:00 -1,3 -1,4 -2,2 3,3 5,9 5 3 10 6 O 1023,5 6 0,6
16.01.2017 03:00:00 -0,7 -0,7 -0,9 3,3 5,9 8 4 11 6 ONO 1023,4 1,1 0,4
16.01.2017 02:00:00 -0,7 -0,7 -0,9 3,2 5,9 5 3 8 4 N 1023,1 1,8 0,2
16.01.2017 01:00:00 -0,7 -0,8 -0,9 3,2 5,9 3 1 4 2 N 1023,3 1,2 0,2
16.01.2017 00:00:00 -0,7 -0,8 -0,9 3,3 5,9 3 2 6 3 W 1023,5 2,2 0,4
15.01.2017 23:00:00 -0,6 -1,0 -0,8 3,2 5,9 4 2 8 4 W 1023,5 2,2 0,2
15.01.2017 22:00:00 -0,5 -1,2 -0,9 3,3 5,9 7 4 11 6 ZW 1023,7 9 0,0
15.01.2017 21:00:00 -0,6 -1,2 -1,5 3,3 5,9 10 5 11 6 ZW 1023,7 11 0,0
15.01.2017 20:00:00 -1,0 -1,4 -2,6 3,2 5,9 7 4 11 6 ZW 1024,0 8 0,0
15.01.2017 19:00:00 -0,7 -1,5 -1,2 3,2 5,9 8 4 13 7 W 1023,8 3,8 0,0
15.01.2017 18:00:00 -0,3 -1,6 -0,9 3,2 5,9 10 5 14 7 WZW 1024,0 18 0,0
15.01.2017 17:00:00 -0,1 -1,7 -0,7 3,3 5,9 9 5 14 8 W 1023,8 38 0,0
15.01.2017 16:00:00 0,1 -1,8 -0,2 3,3 5,9 8 5 16 9 W 1023,8 52 0,0
15.01.2017 15:00:00 0,3 -1,9 0,3 3,2 5,9 11 6 18 10 W 1023,8 52 0,0
15.01.2017 14:00:00 0,4 -2,0 0,6 3,2 5,9 9 5 16 9 WNW 1023,8 57 0,0
15.01.2017 13:00:00 0,5 -2,6 0,9 3,3 5,9 11 6 20 11 NW 1024,0 55 0,0
15.01.2017 12:00:00 0,2 -3,0 -0,5 3,3 5,9 10 6 21 11 NW 1024,0 57 0,0
15.01.2017 11:00:00 -0,4 -2,1 -0,5 3,3 5,9 12 7 21 12 NW 1024,2 45 0,0
15.01.2017 10:00:00 -0,6 -1,7 -1,0 3,3 5,9 10 6 22 12 NW 1024,0 20 0,0
15.01.2017 09:00:00 -0,9 -1,9 -2,4 3,3 5,9 9 5 19 11 WNW 1023,5 17 0,0
15.01.2017 08:00:00 -1,0 -2,0 -1,8 3,3 5,9 10 5 22 12 NW 1022,7 13 0,0
15.01.2017 07:00:00 -0,5 -1,3 -0,9 3,3 5,9 10 5 17 9 NW 1022,3 16 0,0
15.01.2017 06:00:00 -0,5 -1,2 -1,0 3,3 5,9 10 6 18 10 WNW 1021,8 16 0,0
15.01.2017 05:00:00 -1,0 -1,4 -1,3 3,3 5,9 9 5 14 7 WNW 1021,7 17 0,0
15.01.2017 04:00:00 -1,2 -1,9 -3,2 3,3 5,9 7 4 13 7 W 1021,5 15 0,0
15.01.2017 03:00:00 -1,2 -1,9 -3,5 3,3 5,9 10 5 14 8 W 1021,5 20 0,0
15.01.2017 02:00:00 -1,9 -3,3 -4,0 3,3 5,9 8 5 16 9 N 1021,5 41 0,0
15.01.2017 01:00:00 -0,9 -1,5 -7,2 3,3 5,9 8 5 15 8 NW 1020,9 19 0,0

tt = temperatuur
td = dauwpunt
tt 5cm = temperatuur 5cm
tt -20cm = temperatuur -20cm
tt -100cm = temperatuur -100cm
ff = windsnelheid
fx = windstoten
dd = windrichting
ppp = luchtdruk
vv = zicht
rr = neerslag

Weerstations in de omgeving